Regional Weather Roundup
Issued by NWS

Home | Current Version | Previous Version | Graphics & Text | Print | Product List | Glossary Off
Versions: 1 2 3 4 5 6 7 8 9 10 11 12 13 14 15 16 17 18 19 20 21 22 23 24 25 26 27 28 29 30 31 32 33 34 35 36 37 38 39 40 41 42 43 44 45 46 47 48 49 50

000
ASUS43 KLSX 192207
RWRMO

WEATHER SUMMARY FOR MISSOURI
NATIONAL WEATHER SERVICE SPRINGFIELD MO
500 PM CDT TUE AUG 19 2014

NOTE: "FAIR" INDICATES FEW OR NO CLOUDS BELOW 12,000 FEET WITH NO
       SIGNIFICANT WEATHER AND/OR OBSTRUCTIONS TO VISIBILITY.
       CURRENT SKY AND/OR WEATHER CONDITIONS ARE NOT AVAILABLE FOR
       CHILLICOTHE AND FARMINGTON.

MOZ001>031-035>038-043-044-053-054-192300-
...NORTHERN AND WESTERN MISSOURI...

CITY           SKY/WX    TMP DP  RH WIND       PRES   REMARKS
KANSAS CTY INT MOSUNNY   90  72  55 SW5       29.81F HX  97
KANSAS C DTWN  SUNNY     93  70  46 W5        29.78F HX  99
LEE`S SUMMIT   SUNNY     92  73  53 CALM      29.81F HX 100
ST JOSEPH      SUNNY     87  73  62 SW6       29.80F HX  94
CHILLICOTHE      N/A     88  73  61 SW3       29.81S HX  95
KIRKSVILLE     SUNNY     86  71  60 W7        29.80F HX  91

$$
MOZ066>068-077>081-088>096-101>105-192300-
...SOUTHWEST MISSOURI...

CITY           SKY/WX    TMP DP  RH WIND       PRES   REMARKS
SPRINGFIELD    SUNNY     96  61  31 SW13      29.84F HX  96
JOPLIN         SUNNY     95  66  38 SW13      29.83F HX  98

$$
MOZ032>034-039>042-045>050-055>058-069>072-192300-
...CENTRAL MISSOURI...

CITY           SKY/WX    TMP DP  RH WIND       PRES   REMARKS
COLUMBIA       SUNNY     89  69  51 W7        29.82F HX  93
JEFFERSON CITY SUNNY     90  68  48 W9        29.80F HX  94
ROLLA          SUNNY     89  66  46 SW10      29.82F HX  91
SEDALIA        SUNNY     88  71  57 SW9       29.82F HX  94
WHITEMAN AFB   SUNNY     88  60  38 SW6       29.81F
OSAGE BEACH    SUNNY     91  68  46 W6        29.82S HX  95

$$
MOZ051-052-059>065-192300-
...EAST CENTRAL MISSOURI...

CITY           SKY/WX    TMP DP  RH WIND       PRES   REMARKS
ST LOUIS INTL  MOSUNNY   89  71  55 SW10      29.80F HX  95
SPIRIT OF STL  MOSUNNY   88  71  57 W7        29.79S HX  94
ST CHARLES     SUNNY     87  70  56 W8        29.78F HX  92

$$
MOZ072>076-082>087-097>100-106>115-192300-
...SOUTH CENTRAL AND SOUTHEAST MISSOURI...

CITY           SKY/WX    TMP DP  RH WIND       PRES   REMARKS
CAPE GIRARDEAU PTSUNNY   78  69  73 E7        29.80F
FARMINGTON     MOSUNNY   90  72  55 CALM      29.83S HX  96
POPLAR BLUFF   MOSUNNY   89  73  59 S10       29.78F HX  97
WEST PLAINS    SUNNY     93  66  40 VRB6      29.86F HX  96

$$



USA.gov is the U.S. government's official web portal to all federal, state and local government web resources and services.